Regional Weather Roundup
Issued by NWS

Home | Current Version | Previous Version | Graphics & Text | Print | Product List | Glossary On
Versions: 1 2 3 4 5 6 7 8 9 10 11 12 13 14 15 16 17 18 19 20 21 22 23 24 25 26 27 28 29 30 31 32 33 34 35 36 37 38 39 40 41 42 43 44 45 46 47 48 49 50
000
ASUS43 KLMK 240302
RWRKY
KENTUCKY REGIONAL WEATHER ROUNDUP
NATIONAL WEATHER SERVICE LOUISVILLE KY
1100 PM EDT TUE AUG 23 2016

NOTE "FAIR" INDICATES FEW OR NO CLOUDS BELOW 12,000 FEET
WITH NO SIGNIFICANT WEATHER AND/OR OBSTRUCTIONS TO VISIBILITY.

KYZ001>023-026-027-061>063-070>075-240400-
WESTERN AND SOUTH CENTRAL KENTUCKY

CITY           SKY/WX    TMP DP  RH WIND       PRES   REMARKS
PADUCAH        PTCLDY    74  72  93 SE5       30.14S
HENDERSON      MOCLDY    73  66  78 SE3       30.15R
OWENSBORO      PTCLDY    75  69  81 SE7       30.17S
HOPKINSVILLE   CLOUDY    76  72  87 SE3       30.18R
BOWLING GREEN  CLOUDY    75  68  78 CALM      30.20S
GLASGOW        PTCLDY    70  70 100 CALM      30.22R
$$

KYZ024-025-028>034-038-045-046-053-240400-
NORTH CENTRAL KENTUCKY

CITY           SKY/WX    TMP DP  RH WIND       PRES   REMARKS
LOUISVILLE/SDF CLOUDY    76  62  62 SE6       30.20S
LOUISVILLE/LOU CLOUDY    76  63  64 CALM      30.20S
FORT KNOX      CLOUDY    69  67  91 NE1       30.19S
$$

KYZ035>037-039>044-047>052-055>060-089>105-240400-
NORTHEAST KENTUCKY

CITY           SKY/WX    TMP DP  RH WIND       PRES   REMARKS
LEXINGTON      CLEAR     70  64  81 SE5       30.23F
COVINGTON      MOCLDY    71  61  70 CALM      30.22F
FRANKFORT      PTCLDY    69  64  84 CALM      30.21F
$$

KYZ054-064>069-076>088-106>120-240400-
SOUTHEAST KENTUCKY

CITY           SKY/WX    TMP DP  RH WIND       PRES   REMARKS
JACKSON        PTCLDY    71  61  70 E3        30.27R
LONDON         PTCLDY    71  63  75 CALM      30.26R
SOMERSET       CLEAR     68  68 100 CALM      30.25S
MIDDLESBORO    CLEAR     67  65  94 CALM      30.27S
MONTICELLO     CLOUDY   N/A N/A N/A W7        30.26R
$$





USA.gov is the U.S. government's official web portal to all federal, state and local government web resources and services.